Alamos, Argentina
Current Conditions -  °F | °C
As of 5:00 AM on Thursday 29 Jan 2015 (Local Time) from SAEZ Reporting Station
Clear Clear  
Wind Chill: 13°   Ceiling: Unl
Heat Index: 13°   Visibility: 6mi
Dew Point: 12°   Wind: 6mph
Humidity: 94%   Direction: 190°S
Pressure: 30.03"   Gusts: NA
Location:  36.97°S, 62.38°W
Report Text: SAEZ 290800Z 19005KT 160V220 CAVOK 13/12 Q1017
Loading
Personal Weather Stations






























Interactive Weather Map New forecast layout! Learn more

10-Day Weather Forecast

Advertisements
Track Severe Weather on mobile